[[{"header":{"parameterUnit":"m.s-1","parameterCategory":2,"la1":30.2992,"la2":30.254,"lo1":-89.0895,"lo2":-89.0443,"dy":0.0025,"dx":0.0025,"nx":19,"ny":19,"refTime":"2026-03-07T03:00:00:Z","depth":"0","parameterNumber":2,"parameterNumberName":"U-component_of_CURRENTS"},"data":[0,0,0,0.1641,0.1641,0.1618,0.1618,0.1583,0.1583,0,0,0,0,0,0,0,0,0,0,0,0.1648,0.1648,0.1641,0.1641,0.1618,0.1618,0.1583,0.1583,0,0,0,0,0,0,0,0,0,0,0,0.1648,0.1648,0.1648,0.1641,0.1618,0.1618,0.1583,0.1597,0,0,0,0,0,0,0,0,0,0,0.1618,0.1626,0.1648,0.1648,0.1641,0.1619,0.1618,0.1598,0.1596,0.1597,0,0.1606,0,0.1603,0.1582,0.1582,0,0,0,0.1623,0.1627,0.1631,0.1648,0.1641,0.1619,0.1624,0.1597,0.1595,0.1595,0.1606,0.1605,0.1602,0.1582,0.1582,0.1633,0.1634,0,0,0.1624,0.163,0.1633,0.1631,0.1652,0.1624,0.1623,0.1596,0.1595,0.1606,0.1604,0.1602,0.1582,0.1582,0.1633,0.1633,0,0,0,0.164,0.163,0.1635,0.1632,0.1634,0.1624,0.1623,0.1596,0.1601,0.1603,0.1601,0.1582,0.1582,0.1632,0.1633,0.1683,0,0,0,0.164,0.1641,0.1636,0.1636,0.1635,0.1614,0.1623,0.1602,0.1599,0.1601,0.1582,0.1581,0.1631,0.1632,0.168,0.1706,0,0,0,0.1646,0.1641,0.1646,0.1637,0.1637,0.1615,0.1617,0.1601,0.1599,0.1582,0.1581,0.1631,0.1632,0.1677,0.1702,0.1764,0,0,0,0.164,0.1636,0.1646,0.1642,0.1637,0.164,0.1617,0.1606,0.1594,0.1582,0.1631,0.1633,0.1676,0.1699,0.1761,0.1746,0.176,0,0,0.1628,0.1635,0.1632,0.1641,0.1649,0.1641,0.1659,0.1631,0.1621,0.1635,0.1636,0.1681,0.1701,0.1764,0.1836,0.1847,0,0,0,0.1622,0.1622,0.1627,0.1636,0.1648,0.1673,0.1655,0.1669,0.1687,0.1626,0.1699,0.1711,0.1748,0.1733,0.1742,0.1738,0.164,0.164,0.164,0.1598,0.161,0.1611,0.1634,0.1653,0.1692,0.1726,0.1748,0.1721,0.1752,0.1764,0.1863,0.1847,0.1854,0.1851,0.1776,0.1777,0.1777,0.1777,0.1569,0.1558,0.1602,0.1605,0.1663,0.1692,0.1783,0.1801,0.1884,0.1836,0.187,0.1801,0.1867,0.186,0.178,0.178,0.1779,0.1779,0.1779,0.1525,0.1523,0.1537,0.1565,0.1622,0.1694,0.1789,0.1862,0.1926,0.1978,0.1962,0.196,0.1943,0.1991,0.1991,0.1992,0.1992,0.1992,0.1993,0.1466,0.1483,0.1485,0.1527,0.1555,0.1638,0.1792,0.1882,0.1996,0.2028,0.2028,0.1983,0.1929,0.1908,0.1999,0.1998,0.1997,0.1997,0.1996,0.1393,0.1414,0.1413,0.1433,0.1503,0.1548,0.1716,0.1898,0.2019,0.2074,0.2089,0.2063,0.205,0.2041,0.2024,0.214,0.214,0.214,0.214,0.1346,0.1357,0.1354,0.1369,0.1418,0.1503,0.1607,0.1794,0.2015,0.2095,0.2147,0.2084,0.2078,0.2063,0.2054,0.2036,0.2152,0.2152,0.2152,0.1308,0.1319,0.1297,0.1318,0.1364,0.1441,0.1492,0.163,0.1963,0.2153,0.2153,0.2152,0.2056,0.2047,0.2016,0.2003,0.1969,0,0]},{"header":{"parameterUnit":"m.s-1","parameterCategory":2,"la1":30.2992,"la2":30.254,"lo1":-89.0895,"lo2":-89.0443,"dy":0.0025,"dx":0.0025,"nx":19,"ny":19,"refTime":"2026-03-07T03:00:00:Z","depth":"0","parameterNumber":3,"parameterNumberName":"V-component_of_CURRENTS"},"data":[0,0,0,0.0029,0.0028,-0.003,-0.0031,-0.0119,-0.012,0,0,0,0,0,0,0,0,0,0,0,0.0053,0.0053,0.0029,0.0028,-0.003,-0.0031,-0.0119,-0.012,0,0,0,0,0,0,0,0,0,0,0,0.0053,0.0053,0.0053,0.0028,-0.003,-0.0031,-0.0119,-0.0073,0,0,0,0,0,0,0,0,0,0,-0.0015,0.0013,0.0053,0.0053,0.0028,-0.003,-0.0031,-0.0071,-0.0076,-0.0094,0,-0.0095,0,-0.0108,-0.0125,-0.0125,0,0,0,0.002,0.0017,0.0001,0.0053,0.0027,-0.003,-0.0006,-0.0074,-0.0079,-0.01,-0.0096,-0.01,-0.011,-0.0126,-0.0126,-0.0113,-0.0112,0,0,0.0023,0.0039,0.0005,-0.0002,0.0021,-0.0004,-0.0008,-0.0077,-0.0079,-0.0097,-0.0102,-0.0111,-0.0126,-0.0127,-0.0114,-0.0113,0,0,0,0.0038,0.0042,0.0027,0.0001,-0.0008,-0.0006,-0.001,-0.0076,-0.0081,-0.0103,-0.0112,-0.0127,-0.0128,-0.0114,-0.0113,-0.0008,0,0,0,0.004,0.0051,0.0029,0.0037,-0.0006,-0.004,-0.0007,-0.0076,-0.0084,-0.0112,-0.0127,-0.0128,-0.0115,-0.0114,-0.0012,0.0054,0,0,0,0.0054,0.0052,0.0048,0.0038,0.0016,-0.004,-0.0049,-0.0078,-0.009,-0.0125,-0.0129,-0.0116,-0.0114,-0.0017,0.0046,0.009,0,0,0,0.0067,0.0079,0.0049,0.0059,0.0017,0.0022,-0.0048,-0.0063,-0.0086,-0.0127,-0.0115,-0.0113,-0.0018,0.0041,0.0085,0.0122,0.0146,0,0,0.0092,0.0082,0.0089,0.0061,0.0091,0.0029,0.0065,-0.0005,-0.0064,-0.0097,-0.0097,-0.0011,0.0045,0.0089,0.0226,0.0247,0,0,0,0.0103,0.0116,0.0117,0.0125,0.0112,0.0128,0.0066,0.0049,0.002,-0.0069,-0.0004,0.0029,0.0053,0.0065,0.0082,-0.0013,-0.0105,-0.0105,-0.0105,0.0168,0.0163,0.0198,0.0201,0.0207,0.0196,0.0205,0.0172,0.0095,0.0108,0.0119,0.0235,0.025,0.0263,0.0165,0.0113,0.0114,0.0114,0.0114,0.0235,0.0262,0.027,0.0299,0.0314,0.034,0.0337,0.0303,0.0316,0.0236,0.0252,0.0182,0.0289,0.0176,0.0121,0.012,0.0119,0.0118,0.0118,0.0283,0.0301,0.0312,0.037,0.0426,0.0432,0.051,0.048,0.0421,0.0449,0.0418,0.0416,0.0311,0.0438,0.0438,0.0439,0.0439,0.0439,0.044,0.0329,0.0348,0.0398,0.0449,0.0496,0.0566,0.061,0.0633,0.0611,0.0556,0.0555,0.0352,0.0333,0.0313,0.0448,0.0446,0.0445,0.0445,0.0444,0.039,0.0394,0.0473,0.0523,0.0637,0.0738,0.0769,0.0816,0.0808,0.0804,0.0553,0.0598,0.0565,0.055,0.0535,0.0719,0.0719,0.0719,0.0719,0.0432,0.0441,0.0548,0.0638,0.075,0.0821,0.0955,0.0966,0.081,0.0697,0.0612,0.053,0.0523,0.0481,0.0468,0.0447,0.0605,0.0605,0.0604,0.0486,0.0511,0.0593,0.0672,0.0798,0.0913,0.1029,0.1065,0.08,0.0586,0.0477,0.0482,0.0342,0.0339,0.025,0.0239,0.0197,0,0]}],[{"header":{"parameterUnit":"m.s-1","parameterCategory":2,"la1":30.2992,"la2":30.254,"lo1":-89.0895,"lo2":-89.0443,"dy":0.0025,"dx":0.0025,"nx":19,"ny":19,"refTime":"2026-03-07T03:00:00:Z","depth":"2","parameterNumber":2,"parameterNumberName":"U-component_of_CURRENTS"},"data":[0,0,0,0.1706,0.1706,0.1691,0.169,0.1683,0.1683,0,0,0,0,0,0,0,0,0,0,0,0.1711,0.1712,0.1706,0.1706,0.1691,0.169,0.1683,0.1683,0,0,0,0,0,0,0,0,0,0,0,0.1711,0.1712,0.1712,0.1706,0.1691,0.169,0.1683,0.1688,0,0,0,0,0,0,0,0,0,0,0.17,0.1701,0.1712,0.1712,0.1706,0.1691,0.169,0.1688,0.1688,0.1698,0,0.1707,0,0.1702,0.1684,0.1685,0,0,0,0.1692,0.1701,0.1708,0.1712,0.1706,0.1691,0.1694,0.1688,0.1688,0.1698,0.1706,0.1706,0.1702,0.1685,0.1685,0.1752,0.1753,0,0,0.1693,0.1695,0.1708,0.1708,0.1717,0.1694,0.1693,0.1687,0.1687,0.1706,0.1706,0.1702,0.1685,0.1685,0.1751,0.1752,0,0,0,0.1705,0.1695,0.1702,0.1709,0.1709,0.1694,0.1693,0.1687,0.1693,0.1706,0.1702,0.1685,0.1685,0.1751,0.1752,0.1798,0,0,0,0.1705,0.1704,0.1703,0.1702,0.171,0.1694,0.1693,0.1693,0.1692,0.1702,0.1685,0.1685,0.175,0.1751,0.1795,0.1818,0,0,0,0.171,0.1704,0.1709,0.1702,0.1703,0.1695,0.1698,0.1692,0.1691,0.1685,0.1685,0.175,0.1751,0.1793,0.1814,0.1877,0,0,0,0.1702,0.1694,0.1709,0.1702,0.1704,0.1714,0.1698,0.1695,0.1691,0.1685,0.175,0.1752,0.1792,0.1812,0.1874,0.1808,0.1817,0,0,0.1683,0.1692,0.1688,0.1701,0.1716,0.1714,0.1741,0.1726,0.172,0.1749,0.175,0.1796,0.1814,0.1876,0.1892,0.1898,0,0,0,0.1675,0.1678,0.1684,0.1699,0.1717,0.1752,0.1746,0.1763,0.1789,0.1728,0.1813,0.1823,0.1861,0.1815,0.1821,0.1759,0.1758,0.1758,0.1758,0.1648,0.1666,0.1673,0.1707,0.1731,0.1779,0.1816,0.1845,0.1825,0.1855,0.1873,0.1968,0.1919,0.1923,0.1885,0.1885,0.1885,0.1885,0.1885,0.1626,0.1622,0.1676,0.1686,0.1753,0.179,0.1883,0.1901,0.1985,0.194,0.1974,0.188,0.1931,0.1889,0.1889,0.1888,0.1888,0.1887,0.1887,0.159,0.1592,0.1612,0.1656,0.172,0.1796,0.1886,0.196,0.2024,0.2073,0.2027,0.2025,0.1998,0.2088,0.2089,0.2089,0.209,0.209,0.209,0.1535,0.1559,0.157,0.1624,0.1656,0.1741,0.1887,0.197,0.2063,0.2083,0.2083,0.2037,0.203,0.2011,0.2096,0.2095,0.2094,0.2094,0.2093,0.1474,0.1495,0.1506,0.153,0.161,0.165,0.1806,0.1948,0.2061,0.2098,0.2098,0.2095,0.2079,0.2073,0.2055,0.2147,0.2147,0.2147,0.2147,0.1432,0.1445,0.1454,0.1475,0.1529,0.1605,0.1663,0.1773,0.1935,0.1973,0.198,0.1895,0.1897,0.1866,0.1864,0.184,0.1876,0.1875,0.1875,0.1406,0.1417,0.1402,0.1427,0.1477,0.1538,0.1526,0.1516,0.1663,0.1861,0.1902,0.2135,0.2026,0.2023,0.1984,0.1978,0.1943,0,0]},{"header":{"parameterUnit":"m.s-1","parameterCategory":2,"la1":30.2992,"la2":30.254,"lo1":-89.0895,"lo2":-89.0443,"dy":0.0025,"dx":0.0025,"nx":19,"ny":19,"refTime":"2026-03-07T03:00:00:Z","depth":"2","parameterNumber":3,"parameterNumberName":"V-component_of_CURRENTS"},"data":[0,0,0,-0.0037,-0.0038,-0.0089,-0.009,-0.018,-0.0181,0,0,0,0,0,0,0,0,0,0,0,-0.0015,-0.0015,-0.0037,-0.0038,-0.0089,-0.009,-0.018,-0.0181,0,0,0,0,0,0,0,0,0,0,0,-0.0015,-0.0015,-0.0016,-0.0038,-0.0089,-0.009,-0.018,-0.0137,0,0,0,0,0,0,0,0,0,0,-0.0085,-0.0057,-0.0015,-0.0016,-0.0038,-0.0089,-0.009,-0.0135,-0.014,-0.0161,0,-0.016,0,-0.0171,-0.0186,-0.0187,0,0,0,-0.0047,-0.0053,-0.0067,-0.0016,-0.0039,-0.0089,-0.0069,-0.0137,-0.0143,-0.0167,-0.0161,-0.0164,-0.0172,-0.0187,-0.0187,-0.0186,-0.0185,0,0,-0.0044,-0.0029,-0.0063,-0.007,-0.0041,-0.0067,-0.007,-0.014,-0.0142,-0.0161,-0.0166,-0.0174,-0.0188,-0.0188,-0.0186,-0.0185,0,0,0,-0.003,-0.0027,-0.0039,-0.0066,-0.0073,-0.0068,-0.0072,-0.0139,-0.0143,-0.0167,-0.0175,-0.0188,-0.0189,-0.0187,-0.0186,-0.0087,0,0,0,-0.0029,-0.0018,-0.0037,-0.003,-0.0071,-0.0103,-0.0069,-0.0138,-0.0146,-0.0174,-0.0188,-0.019,-0.0188,-0.0186,-0.0091,-0.0036,0,0,0,-0.0015,-0.0017,-0.0019,-0.0029,-0.0047,-0.0102,-0.011,-0.014,-0.015,-0.0187,-0.019,-0.0188,-0.0187,-0.0095,-0.0043,-0.0005,0,0,0,-0.0004,0.0004,-0.0019,-0.0014,-0.0047,-0.0047,-0.011,-0.0125,-0.0149,-0.0189,-0.0188,-0.0186,-0.0096,-0.0048,-0.0009,-0.0043,-0.0026,0,0,0.0014,0.0007,0.001,-0.0012,0.0007,-0.0041,-0.0014,-0.0078,-0.0132,-0.017,-0.017,-0.009,-0.0044,-0.0006,0.0049,0.0062,0,0,0,0.002,0.0029,0.0028,0.0033,0.0021,0.0035,-0.0017,-0.0032,-0.0059,-0.0138,-0.0085,-0.0059,-0.0039,-0.0067,-0.0056,-0.0178,-0.0179,-0.0179,-0.0179,0.0076,0.0068,0.0095,0.0095,0.0098,0.0089,0.0095,0.0067,0.0004,0.0018,0.0025,0.0128,0.0099,0.0107,0.0021,0.0021,0.0022,0.0022,0.0022,0.0131,0.0151,0.0156,0.0177,0.0192,0.0215,0.0207,0.0181,0.0194,0.0128,0.0142,0.0043,0.0125,0.003,0.0029,0.0028,0.0027,0.0026,0.0026,0.0174,0.0187,0.0199,0.0247,0.0296,0.03,0.0362,0.034,0.0288,0.0313,0.0245,0.0242,0.0182,0.031,0.031,0.0311,0.0311,0.0311,0.0312,0.0216,0.0232,0.028,0.0322,0.0367,0.0428,0.0461,0.0471,0.0425,0.0362,0.036,0.0224,0.0215,0.0198,0.0318,0.0317,0.0316,0.0316,0.0315,0.0266,0.0274,0.0348,0.0396,0.0497,0.0576,0.0592,0.0586,0.0572,0.0539,0.0373,0.037,0.0331,0.0319,0.0304,0.0446,0.0446,0.0446,0.0446,0.0304,0.0312,0.0422,0.0507,0.0599,0.0646,0.0717,0.0675,0.0569,0.0474,0.0473,0.0404,0.0398,0.0357,0.0345,0.0328,0.0476,0.0476,0.0477,0.0348,0.0376,0.0465,0.0542,0.0644,0.0715,0.0758,0.0709,0.0542,0.048,0.0505,0.0442,0.0332,0.0325,0.0251,0.0237,0.0204,0,0]}],[{"header":{"parameterUnit":"m.s-1","parameterCategory":2,"la1":30.2992,"la2":30.254,"lo1":-89.0895,"lo2":-89.0443,"dy":0.0025,"dx":0.0025,"nx":19,"ny":19,"refTime":"2026-03-07T03:00:00:Z","depth":"4","parameterNumber":2,"parameterNumberName":"U-component_of_CURRENTS"},"data":[0,0,0,0.113,0.1132,0.1249,0.1249,0.1307,0.1307,0,0,0,0,0,0,0,0,0,0,0,0.1094,0.1095,0.113,0.1133,0.1249,0.1249,0.1307,0.1307,0,0,0,0,0,0,0,0,0,0,0,0.1094,0.1095,0.1096,0.1133,0.1249,0.1249,0.1307,0.1242,0,0,0,0,0,0,0,0,0,0,0.114,0.1123,0.1094,0.1096,0.1134,0.1249,0.1249,0.1239,0.1246,0.1229,0,0.1257,0,0.128,0.1309,0.1309,0,0,0,0.1132,0.1118,0.1146,0.1096,0.1135,0.1248,0.1196,0.1244,0.125,0.1236,0.1258,0.1261,0.1281,0.1309,0.131,0.1377,0.1378,0,0,0.1125,0.1114,0.1142,0.1151,0.1177,0.1192,0.12,0.1249,0.126,0.1259,0.1263,0.1282,0.131,0.131,0.1377,0.1377,0,0,0,0.1107,0.111,0.1139,0.1148,0.1175,0.1196,0.1204,0.1258,0.1268,0.1264,0.1283,0.131,0.131,0.1376,0.1377,0.1402,0,0,0,0.1103,0.1099,0.1136,0.1131,0.1175,0.1231,0.1212,0.1265,0.1271,0.1283,0.131,0.131,0.1375,0.1377,0.14,0.1408,0,0,0,0.1087,0.1097,0.1114,0.113,0.118,0.1231,0.1245,0.1267,0.1282,0.1309,0.131,0.1375,0.1376,0.1398,0.1406,0.1438,0,0,0,0.1065,0.1099,0.1114,0.1159,0.1179,0.1243,0.1245,0.1299,0.1327,0.131,0.1376,0.1377,0.1398,0.1404,0.1436,0.1267,0,0,0,0.109,0.1102,0.1126,0.1143,0.1194,0.1226,0.1285,0.1324,0.1337,0.1351,0.1354,0.1401,0.1405,0.1438,0.1344,0,0,0,0,0.1123,0.1139,0.1159,0.1197,0.1241,0.1285,0.1328,0.135,0.1398,0.1361,0.142,0.1422,0.1441,0.1338,0.1383,0.1383,0.1383,0.1383,0.1382,0.1124,0.115,0.1185,0.1222,0.1266,0.1331,0.1373,0.1411,0.1416,0.1451,0.1457,0.1517,0.141,0.1474,0.1474,0.1474,0.1475,0.1475,0.1475,0.1135,0.1145,0.1191,0.1235,0.1285,0.1341,0.1414,0.1443,0.1507,0.1497,0.1515,0.1389,0.1478,0.1477,0.1477,0.1476,0.1476,0.1476,0.1476,0.1108,0.1114,0.1158,0.1215,0.1281,0.1353,0.1416,0.1485,0.1531,0.1562,0.1466,0.1542,0.1524,0.1583,0.1583,0.1583,0.1583,0.1583,0.1583,0.1052,0.1093,0.1121,0.1191,0.1232,0.1309,0.1426,0.1469,0.1542,0.1482,0.1581,0.1554,0.155,0.1531,0.1586,0.1586,0.1585,0.1585,0.1585,0.1002,0.1032,0.1063,0.11,0.118,0.1219,0.1349,0.1404,0.144,0.1432,0.1437,0.1444,0.142,0.142,0.1395,0.1412,0.141,0.1408,0,0.0958,0.0975,0.1009,0.1042,0.1074,0.1161,0.1167,0.1245,0.1318,0.1272,0.1447,0.1451,0.1454,0.1426,0.1423,0.1392,0,0,0,0.0921,0.0939,0.0942,0.099,0.1016,0.107,0.1165,0.1154,0.1298,0.1296,0.1359,0.1372,0.1507,0.1595,0.1575,0.1571,0.1539,0,0]},{"header":{"parameterUnit":"m.s-1","parameterCategory":2,"la1":30.2992,"la2":30.254,"lo1":-89.0895,"lo2":-89.0443,"dy":0.0025,"dx":0.0025,"nx":19,"ny":19,"refTime":"2026-03-07T03:00:00:Z","depth":"4","parameterNumber":3,"parameterNumberName":"V-component_of_CURRENTS"},"data":[0,0,0,-0.0022,-0.0022,-0.0059,-0.0059,-0.0092,-0.0092,0,0,0,0,0,0,0,0,0,0,0,-0.001,-0.0011,-0.0022,-0.0022,-0.0059,-0.0059,-0.0092,-0.0092,0,0,0,0,0,0,0,0,0,0,0,-0.001,-0.001,-0.0011,-0.0023,-0.0059,-0.0059,-0.0092,-0.007,0,0,0,0,0,0,0,0,0,0,-0.0036,-0.0025,-0.001,-0.0011,-0.0023,-0.0059,-0.0059,-0.0069,-0.0071,-0.007,0,-0.0073,0,-0.008,-0.0094,-0.0094,0,0,0,-0.0029,-0.0023,-0.0032,-0.0011,-0.0023,-0.0059,-0.0044,-0.007,-0.0073,-0.0073,-0.0074,-0.0075,-0.008,-0.0094,-0.0094,-0.0134,-0.0134,0,0,-0.0027,-0.0019,-0.003,-0.0033,-0.0029,-0.0043,-0.0045,-0.0072,-0.0073,-0.0074,-0.0076,-0.0081,-0.0094,-0.0094,-0.0134,-0.0134,0,0,0,-0.0017,-0.0017,-0.0026,-0.0032,-0.0038,-0.0044,-0.0047,-0.0072,-0.0075,-0.0076,-0.0081,-0.0094,-0.0094,-0.0133,-0.0134,-0.0121,0,0,0,-0.0016,-0.0011,-0.0025,-0.0021,-0.0037,-0.0057,-0.0046,-0.0073,-0.0076,-0.0081,-0.0094,-0.0095,-0.0133,-0.0133,-0.012,-0.0088,0,0,0,-0.0009,-0.001,-0.0013,-0.002,-0.0033,-0.0057,-0.0061,-0.0074,-0.0079,-0.0094,-0.0095,-0.0133,-0.0133,-0.012,-0.0088,-0.0069,0,0,0,-0.0002,-0.0004,-0.0013,-0.002,-0.0033,-0.0055,-0.0061,-0.008,-0.0093,-0.0094,-0.0133,-0.0134,-0.012,-0.0089,-0.007,-0.0008,0,0,0,-0.0,-0.0004,-0.0009,-0.0018,-0.0033,-0.0051,-0.0072,-0.009,-0.0104,-0.0123,-0.0125,-0.012,-0.0088,-0.0069,-0.005,0,0,0,0,-0.0006,-0.0008,-0.0015,-0.0027,-0.0045,-0.0058,-0.0085,-0.0098,-0.0123,-0.0114,-0.0138,-0.0118,-0.0106,-0.0074,-0.0137,-0.0137,-0.0137,-0.0137,-0.0137,0.0013,-0.0002,-0.001,-0.003,-0.0042,-0.0069,-0.0083,-0.0107,-0.0126,-0.0141,-0.0122,-0.0114,-0.0084,-0.0153,-0.0153,-0.0153,-0.0153,-0.0153,-0.0153,0.0016,0.0009,-0.0004,-0.0017,-0.003,-0.0047,-0.0076,-0.0094,-0.0108,-0.013,-0.012,-0.0081,-0.0152,-0.0152,-0.0152,-0.0152,-0.0153,-0.0153,-0.0153,0.0027,0.0021,0.0014,0.0003,0.0,-0.0021,0.0002,-0.0035,-0.0076,-0.0073,-0.0034,-0.0095,-0.0078,-0.007,-0.0069,-0.0069,-0.0069,-0.0069,-0.0069,0.004,0.0032,0.0034,0.0026,0.0034,0.0052,0.0051,0.0055,0.0012,0.0008,-0.0057,-0.0086,-0.0088,-0.0074,-0.0065,-0.0066,-0.0066,-0.0067,-0.0067,0.0041,0.0049,0.0054,0.0064,0.0092,0.0117,0.0122,0.0143,0.0148,0.0135,0.0045,0.0038,0.0049,0.0043,0.0063,0.0112,0.0113,0.0114,0,0.0054,0.0052,0.0074,0.0103,0.0149,0.0159,0.0215,0.0221,0.0166,0.0158,0.0119,0.0016,0.0011,0.002,0.0017,0.0039,0,0,0,0.0057,0.0065,0.0088,0.0118,0.0172,0.0216,0.0234,0.0244,0.0166,0.0207,0.0136,0.013,0.0042,-0.0056,-0.0054,-0.0058,-0.0033,0,0]}]]